Location: Mactaquac Provincial Park
(45.9573°N, 66.8897°W)
Time: 15:43:52
(UTC-04:00)

CENTAUR R/B - Visible Passes

Search period start: 17 December 2017 00:00
Search period end: 27 December 2017 00:00
Orbit: 822 x 1366 km, 63.5° (Epoch: 15 December)

Date Brightness Start Highest point End Pass type
(mag) Time Alt. Az. Time Alt. Az. Time Alt. Az.
17 Dec 3.8 17:15:54 10° NNW 17:22:29 31° NNE 17:29:37 10° E visible
17 Dec 3.0 19:06:29 10° NW 19:14:21 81° NE 19:19:24 28° SE visible
17 Dec 4.6 20:57:59 10° NW 21:04:35 29° WSW 21:06:43 26° SW visible
18 Dec 3.1 18:18:16 10° NW 18:25:54 59° NE 18:34:11 10° ESE visible
18 Dec 4.0 20:09:12 10° NW 20:16:38 44° WSW 20:22:17 19° S visible
19 Dec 3.4 17:30:04 10° NNW 17:37:19 43° NE 17:45:10 10° ESE visible
19 Dec 3.4 19:20:44 10° NW 19:28:33 66° WSW 19:36:53 10° SSE visible
19 Dec 5.4 21:13:46 10° WNW 21:18:08 16° WSW 21:22:36 10° SW visible
20 Dec 3.1 18:32:24 10° NW 18:40:18 88° NE 18:48:47 10° SE visible
20 Dec 4.9 20:24:06 10° WNW 20:30:24 26° WSW 20:36:57 10° SSW visible
21 Dec 3.1 17:44:10 10° NW 17:51:53 63° NE 18:00:14 10° SE visible
21 Dec 4.3 19:35:13 10° NW 19:42:30 40° WSW 19:50:10 10° S visible
22 Dec 3.7 18:46:41 10° NW 18:54:26 60° WSW 19:02:42 10° SSE visible
22 Dec 5.7 20:40:19 10° WNW 20:43:54 14° WSW 20:47:34 10° SW visible
23 Dec 3.2 17:58:20 10° NW 18:06:14 86° SW 18:14:42 10° SSE visible
23 Dec 5.2 19:50:15 10° WNW 19:56:13 23° WSW 20:02:24 10° SSW visible
24 Dec 3.1 17:10:05 10° NW 17:17:51 69° NE 17:26:15 10° SE visible
24 Dec 4.6 19:01:15 10° NW 19:08:21 36° WSW 19:15:49 10° S visible
25 Dec 3.9 18:12:39 10° NW 18:20:20 55° WSW 18:28:29 10° SSE visible
25 Dec 5.9 20:07:10 10° W 20:09:40 12° WSW 20:12:12 10° WSW visible
26 Dec 3.4 17:24:15 10° NW 17:32:09 80° SW 17:40:36 10° SSE visible
26 Dec 5.5 19:16:27 10° WNW 19:22:01 21° WSW 19:27:46 10° SSW visible
